Home > Time Zones > World Clock > Weather > Qatar > Doha > Past weeks

Flag for Qatar Weather past 2 weeks in Doha, Qatar

Now
93 °F

Sunny.


Feels Like: 103 °F
Forecast: 86 / 102 °F
Wind: 7 mph from North

Location: Doha International Airport

Current Time: Sep 23, 2014 at 8:11:45 AM

Latest Report: Sep 23, 2014 at 7:30 AM


Visibility: 10 mi

Pressure: 29.74 "Hg

Humidity: 53%

Dew point: 73 °F

Location of DohaLocation

Historic Weather in Doha — Graph

°F

Doha temperature yesterday

Maximum temperature yesterday: 100 °F (at 11:00 AM)
Minimum temperature yesterday: 84 °F (at 6:00 AM)
Average temperature yesterday: 94 °F

Past Weeks' High & Low Weather Summary

 TemperatureHumidityPressure
High108 °F (Sep 10, 11:00 AM)84% (Sep 17, 2:00 AM)29.83 "Hg (Sep 17, 2:00 AM)
Low84 °F (Sep 14, 6:00 AM)8% (Sep 12, 3:00 PM)29.59 "Hg (Sep 8, 3:00 PM)
Average95 °F50%29.67 "Hg
* Reported Sep 8 7:00 AM — Sep 23 7:00 AM, Doha, Weather by CustomWeather, © 2014

Note: Actual official high and low records may vary slightly from our data, if they occured in-between our weather recording intervals... More about our weather records

Advertising

Doha weather history for previous 24 hours

 ConditionsComfort  
Time TempWeatherWind HumidityBarometerVisibility
7:00 AM
Sep 23
90 °FSunny.7 mph67%29.74 "Hg10 mi
6:30 AM86 °FSunny.7 mph79%29.71 "Hg10 mi
6:00 AM86 °FSunny.5 mph84%29.71 "Hg10 mi
5:30 AM86 °FClear.7 mph84%29.71 "Hg5 mi
5:00 AM86 °FClear.5 mph84%29.71 "Hg5 mi
4:00 AM86 °FClear.7 mph84%29.68 "Hg10 mi
3:30 AM86 °FClear.6 mph79%29.68 "Hg10 mi
3:00 AM86 °FClear.3 mph79%29.68 "Hg10 mi
2:30 AM86 °FPassing clouds.5 mph79%29.68 "HgN/A
2:00 AM86 °FPassing clouds.5 mph84%29.68 "HgN/A
1:00 AM88 °FClear.3 mph79%29.68 "Hg10 mi
12:00 AM88 °FClear.3 mph75%29.71 "Hg10 mi
7:00 PM
Sep 22
91 °FPassing clouds.3 mph67%29.71 "HgN/A
6:00 PM93 °FPassing clouds.3 mph59%29.68 "HgN/A
5:00 PM95 °FSunny.7 mph56%29.68 "Hg10 mi
4:30 PM95 °FPassing clouds.7 mph56%29.68 "HgN/A
4:00 PM97 °FSunny.7 mph53%29.68 "Hg10 mi
3:30 PM97 °FPassing clouds.7 mph47%29.68 "HgN/A
3:00 PM99 °FPassing clouds.7 mph44%29.68 "HgN/A
2:30 PM99 °FPassing clouds.7 mph42%29.68 "HgN/A
2:00 PM99 °FPassing clouds.9 mph33%29.68 "HgN/A
1:00 PM100 °FPassing clouds.7 mph40%29.68 "HgN/A
12:30 PM100 °FPassing clouds.7 mph33%29.68 "HgN/A
12:00 PM100 °FPassing clouds.7 mph33%29.71 "HgN/A
11:30 AM100 °FPassing clouds.7 mph35%29.71 "HgN/A
11:00 AM100 °FSunny.8 mph40%29.71 "Hg10 mi
10:30 AM99 °FSunny.7 mph47%29.71 "Hg10 mi
10:00 AM97 °FPassing clouds.7 mph47%29.74 "HgN/A
9:30 AM99 °FPassing clouds.7 mph42%29.74 "HgN/A
9:00 AM97 °FPassing clouds.5 mph53%29.74 "HgN/A
8:30 AM95 °FPassing clouds.6 mph53%29.74 "HgN/A
8:00 AM95 °FPassing clouds.3 mph56%29.74 "HgN/A
Weather by CustomWeather, © 2014

See weather overviewHow to use our weather pages